Location: Allos
(44.2333°N, 6.6333°E)
Time: 13:35:05
(UTC+00:00)

Lacrosse 5 rocket - Visible Passes

Search period start: 12 April 2021 00:00
Search period end: 22 April 2021 00:00
Orbit: 463 x 631 km, 57.0° (Epoch: 11 April)

Date Brightness Start Highest point End Pass type
(mag) Time Alt. Az. Time Alt. Az. Time Alt. Az.
12 Apr 3.5 01:13:22 28° NE 01:13:22 28° NE 01:16:48 10° E visible
12 Apr 1.4 02:49:12 19° NW 02:52:21 71° SW 02:56:57 10° SE visible
12 Apr 2.1 20:02:01 10° WSW 20:05:58 53° NW 20:10:10 10° NE visible
12 Apr 4.1 21:42:58 10° WNW 21:45:58 19° NNW 21:49:05 10° NNE visible
12 Apr 4.4 23:23:49 10° NNW 23:25:18 15° NNW 23:25:18 15° NNW visible
13 Apr4.501:11:27E01:11:27E01:00:57NWvisible
13 Apr 2.0 02:47:20 44° S 02:47:20 44° S 02:50:48 10° SSE visible
13 Apr 2.6 19:56:08 10° WSW 20:00:00 43° NNW 20:04:06 10° NE visible
13 Apr 4.2 21:37:18 10° NW 21:40:08 17° NNW 21:43:04 10° NNE visible
13 Apr 4.3 23:17:52 10° NNW 23:19:45 16° N 23:19:45 16° N visible
14 Apr 3.0 19:50:18 10° W 19:54:03 35° NNW 19:58:00 10° NE visible
14 Apr 4.2 21:31:37 10° NW 21:34:18 16° N 21:37:04 10° NNE visible
14 Apr 4.2 23:11:52 10° NNW 23:13:54 17° N 23:13:54 17° N visible
15 Apr 3.3 19:44:31 10° W 19:48:08 30° NNW 19:51:55 10° NE visible
15 Apr 4.3 21:25:54 10° NW 21:28:29 15° N 21:31:07 10° NNE visible
15 Apr 4.1 23:05:50 10° NNW 23:07:56 18° N 23:07:56 18° N visible
16 Apr 3.6 19:38:47 10° W 19:42:13 25° NNW 19:45:49 10° NNE visible
16 Apr 4.3 21:20:09 10° NW 21:22:39 15° N 21:25:14 10° NE visible
16 Apr 4.0 22:59:46 10° NNW 23:01:54 19° N 23:01:54 19° N visible
17 Apr 3.7 19:33:04 10° WNW 19:36:20 22° NNW 19:39:44 10° NNE visible
17 Apr 4.2 21:14:20 10° NW 21:16:50 15° N 21:19:23 10° NE visible
17 Apr 3.9 22:53:42 10° NNW 22:55:52 20° N 22:55:52 20° N visible
18 Apr 3.9 19:27:22 10° WNW 19:30:27 20° NNW 19:33:39 10° NNE visible
18 Apr 4.2 21:08:28 10° NNW 21:11:01 15° N 21:13:35 10° NE visible
18 Apr 3.8 22:47:37 10° NNW 22:49:49 22° N 22:49:49 22° N visible
19 Apr 4.0 19:21:42 10° WNW 19:24:35 18° NNW 19:27:35 10° NNE visible
19 Apr 4.1 21:02:33 10° NNW 21:05:10 16° N 21:07:51 10° NE visible
19 Apr 3.7 22:41:31 10° NW 22:43:45 24° NNW 22:43:45 24° NNW visible
20 Apr 4.0 19:16:01 10° NW 19:18:44 17° NNW 19:21:32 10° NNE visible
20 Apr 4.0 20:56:36 10° NNW 20:59:20 16° N 21:02:06 10° NE visible
20 Apr 3.6 22:35:26 10° NW 22:37:42 26° NNW 22:37:42 26° NNW visible
21 Apr 4.0 19:10:20 10° NW 19:12:53 16° N 19:15:31 10° NNE visible
21 Apr 3.9 20:50:35 10° NNW 20:53:29 17° NNE 20:56:04 11° NE visible
21 Apr 3.4 22:29:20 10° NW 22:31:40 28° NNW 22:31:40 28° NNW visible
